Location: Newark
(44.3867°N, 6.6531°E)
Time: 01:13:29
(UTC+00:00)

Envisat - Pass Details

Date: 28 January 2020
Orbit: 764 x 766 km, 98.1° (Epoch: 27 February)

Event Time Altitude Azimuth Distance (km) Brightness Sun altitude
Rises 17:15:50 0° 164° (SSE) 3,219 6.3 -7.4°
Reaches altitude 10° 17:18:08 10° 164° (SSE) 2,297 5.5 -7.8°
Maximum altitude 17:23:12 88° 74° (ENE) 773 3.0 -8.6°
Drops below altitude 10° 17:28:19 10° 347° (NNW) 2,314 5.5 -9.5°
Sets 17:30:38 0° 348° (NNW) 3,244 6.2 -9.9°
